This demonstration page uses our WeatherBlox Daily Observations layout. Learn more.

Left ArrowRight Arrow

Hourly Observations for December 30, 2019

Temp ( °F °C ) Dew Point ( °F °C ) Humidity (%) Winds ( mph kmh ) Pressure ( in mb ) Visibility ( mi km ) Precip ( " mm )
12:56 am 00:56 Cloudy 27 -3 18 -8 69 69 WNW 25 41 29.61 1003 10 16 0.00 0.00
1:56 am 01:56 Cloudy 27 -3 18 -8 69 69 WNW 23 37 29.63 1003 10 16 0.00 0.00
2:56 am 02:56 Cloudy 27 -3 18 -8 69 69 W 32 52 29.65 1004 10 16 0.00 0.00
3:19 am 03:19 Windy with Snow Likely 27 -3 19 -7 74 74 WNW 24 39 29.66 1004 9 14 0.00 0.00
3:56 am 03:56 Cloudy with Light Snow 27 -3 19 -7 74 74 WNW 18 30 29.67 1005 9 14 0.00 0.00
4:56 am 04:56 Windy with Snow Likely 27 -3 18 -8 69 69 WNW 25 41 29.69 1005 9 14 0.00 0.00
5:56 am 05:56 Windy with Snow Likely 27 -3 18 -8 69 69 WNW 20 31 29.72 1006 9 14 0.00 0.00
6:11 am 06:11 Cloudy N/A N/A N/A WNW 25 41 N/A 10 16 0.00 0.00
6:56 am 06:56 Cloudy 27 -3 19 -7 74 74 WNW 18 30 29.75 1007 10 16 0.00 0.00
7:32 am 07:32 Cloudy N/A N/A N/A NW 15 24 N/A 10 16 0.00 0.00
7:47 am 07:47 Cloudy N/A N/A N/A WNW 17 28 N/A 10 16 0.00 0.00
7:56 am 07:56 Cloudy 27 -3 18 -8 69 69 WNW 21 33 29.78 1008 10 16 0.00 0.00
8:56 am 08:56 Cloudy 27 -3 18 -8 69 69 WNW 24 39 29.81 1009 10 16 0.00 0.00
9:56 am 09:56 Cloudy 27 -3 18 -8 69 69 NW 25 41 29.84 1010 10 16 0.00 0.00
10:56 am 10:56 Cloudy 28 -2 18 -8 64 64 WNW 18 30 29.84 1010 10 16 0.00 0.00
11:56 am 11:56 Cloudy N/A N/A N/A WNW 24 39 N/A 10 16 0.00 0.00
12:56 pm 12:56 Cloudy 28 -2 18 -8 64 64 WNW 25 41 29.85 1011 10 16 0.00 0.00
1:56 pm 13:56 Cloudy 28 -2 18 -8 64 64 NW 18 30 29.87 1011 10 16 0.00 0.00
2:56 pm 14:56 Cloudy 28 -2 18 -8 64 64 WNW 16 26 29.89 1012 10 16 0.00 0.00
3:56 pm 15:56 Cloudy 28 -2 19 -7 69 69 WNW 17 28 29.92 1013 10 16 0.00 0.00
4:56 pm 16:56 Cloudy 28 -2 19 -7 69 69 WNW 23 37 29.94 1014 10 16 0.00 0.00
5:56 pm 17:56 Cloudy 28 -2 21 -6 74 74 WNW 21 33 29.96 1014 10 16 0.00 0.00
6:56 pm 18:56 Cloudy 28 -2 21 -6 74 74 WNW 18 30 29.96 1015 10 16 0.00 0.00
7:56 pm 19:56 Cloudy 28 -2 21 -6 74 74 W 17 28 29.95 1014 10 16 0.00 0.00
8:11 pm 20:11 Cloudy 28 -2 21 -6 74 74 WNW 16 26 29.95 1014 10 16 0.00 0.00
8:56 pm 20:56 Cloudy 30 -1 21 -6 69 69 W 15 24 29.93 1014 10 16 0.00 0.00
9:56 pm 21:56 Partly Cloudy 30 -1 19 -7 64 64 W 15 24 29.93 1013 10 16 0.00 0.00
10:56 pm 22:56 Cloudy 30 -1 19 -7 64 64 W 14 22 29.93 1014 10 16 0.00 0.00
11:56 pm 23:56 Cloudy 30 -1 19 -7 64 64 W 12 19 29.92 1013 10 16 0.00 0.00

Powered by AerisWeather